Location: ?ejeti?ky
(50.4060°N, 14.9016°E)
Time: 19:46:33
(UTC+00:00)

X-37B - Pass Details

Date: 16 December 2021
Orbit: 334 x 337 km, 45.0° (Epoch: 11 January)

Event Time Altitude Azimuth Distance (km) Brightness Sun altitude
Rises 15:31:41 0° 256° (WSW) 2,105 6.1 -5.4°
Reaches altitude 10° 15:33:51 10° 243° (WSW) 1,268 5.1 -5.7°
Maximum altitude 15:36:19 27° 183° (S) 688 2.2 -6.1°
Drops below altitude 10° 15:38:47 10° 122° (ESE) 1,267 2.9 -6.4°
Enters shadow 15:40:49 - 110° (ESE) 2,055 3.9 -6.7°
